| time (UTC) | temp C | wind direction | speed KPH | gust KPH | rain 1hr cm | rain 24hr cm | rain mn cm | humidity % | barometer mb |
| 20260508020540 | 5 | 255 | 1.6 | 6.4 | 0.00 | 0.76 | 0.05 | 62 | 1004.0 |
| 20260508020047 | 5 | 219 | 3.2 | 6.4 | 0.00 | 0.76 | 0.05 | 62 | 1004.0 |
| 20260508015538 | 5 | 229 | 1.6 | 4.8 | 0.00 | 0.91 | 0.05 | 62 | 1004.0 |
| 20260508015038 | 5 | 231 | 0.0 | 4.8 | 0.00 | 0.91 | 0.05 | 61 | 1004.1 |
| 20260508014547 | 5 | 245 | 1.6 | 4.8 | 0.00 | 0.91 | 0.05 | 61 | 1004.1 |
| 20260508014037 | 5 | 252 | 0.0 | 3.2 | 0.00 | 0.91 | 0.05 | 61 | 1004.2 |
| 20260508013541 | 5 | 218 | 0.0 | 3.2 | 0.00 | 0.91 | 0.05 | 61 | 1004.2 |
| 20260508013046 | 5 | 0 | 0.0 | 8.0 | 0.00 | 0.91 | 0.05 | 60 | 1004.2 |
| 20260508012538 | 5 | 233 | 1.6 | 8.0 | 0.00 | 0.91 | 0.05 | 60 | 1004.2 |
| 20260508012039 | 5 | 248 | 1.6 | 8.0 | 0.00 | 0.91 | 0.05 | 59 | 1004.1 |
| 20260508011548 | 5 | 0 | 1.6 | 12.9 | 0.00 | 0.91 | 0.05 | 59 | 1004.2 |
| 20260508011038 | 5 | 232 | 3.2 | 12.9 | 0.00 | 0.91 | 0.05 | 59 | 1004.2 |
| 20260508010538 | 5 | 245 | 3.2 | 12.9 | 0.00 | 0.91 | 0.05 | 59 | 1004.2 |
| 20260508010138 | 5 | 241 | 4.8 | 11.3 | 0.00 | 0.91 | 0.05 | 59 | 1004.1 |
| 20260508005540 | 6 | 259 | 3.2 | 11.3 | 0.00 | 1.19 | 0.05 | 58 | 1004.2 |
| 20260508005041 | 6 | 257 | 4.8 | 14.5 | 0.00 | 1.19 | 0.05 | 58 | 1004.3 |
| 20260508004554 | 6 | 249 | 6.4 | 14.5 | 0.00 | 1.19 | 0.05 | 58 | 1004.2 |
| 20260508004039 | 6 | 250 | 8.0 | 16.1 | 0.00 | 1.19 | 0.05 | 57 | 1004.0 |
| 20260508003540 | 6 | 273 | 8.0 | 19.3 | 0.00 | 1.19 | 0.05 | 57 | 1003.9 |
| 20260508003049 | 6 | 269 | 9.7 | 19.3 | 0.00 | 1.19 | 0.05 | 57 | 1003.7 |
| 20260508002542 | 6 | 272 | 6.4 | 14.5 | 0.00 | 1.19 | 0.05 | 56 | 1003.8 |
| 20260508002040 | 6 | 257 | 8.0 | 19.3 | 0.00 | 1.19 | 0.05 | 56 | 1003.8 |
| 20260508001550 | 6 | 259 | 8.0 | 24.1 | 0.00 | 1.19 | 0.05 | 55 | 1003.7 |
| 20260508001041 | 6 | 252 | 8.0 | 24.1 | 0.00 | 1.19 | 0.05 | 55 | 1003.7 |
| 20260508000542 | 6 | 250 | 12.9 | 25.7 | 0.00 | 1.19 | 0.05 | 54 | 1003.5 |
| 20260508000053 | 6 | 224 | 12.9 | 30.6 | 0.00 | 1.19 | 0.05 | 53 | 1003.7 |
| 20260507235541 | 7 | 267 | 17.7 | 30.6 | 0.00 | 1.40 | 0.05 | 53 | 1003.6 |
| 20260507235041 | 7 | 264 | 11.3 | 22.5 | 0.00 | 1.40 | 0.05 | 53 | 1003.6 |
| 20260507234550 | 7 | 236 | 12.9 | 22.5 | 0.00 | 1.40 | 0.05 | 53 | 1003.5 |
| 20260507234041 | 7 | 254 | 8.0 | 25.7 | 0.00 | 1.40 | 0.05 | 52 | 1003.5 |
| 20260507233545 | 7 | 268 | 11.3 | 25.7 | 0.00 | 1.40 | 0.05 | 51 | 1003.3 |
| 20260507233052 | 7 | 219 | 12.9 | 25.7 | 0.00 | 1.40 | 0.05 | 51 | 1003.2 |
| 20260507232541 | 7 | 233 | 11.3 | 30.6 | 0.00 | 1.40 | 0.05 | 50 | 1003.1 |
| 20260507232040 | 8 | 214 | 17.7 | 30.6 | 0.00 | 1.40 | 0.05 | 50 | 1003.1 |
| 20260507231555 | 8 | 271 | 14.5 | 32.2 | 0.00 | 1.40 | 0.05 | 50 | 1003.1 |
| 20260507231041 | 8 | 224 | 16.1 | 32.2 | 0.00 | 1.40 | 0.05 | 50 | 1003.0 |
| 20260507230542 | 8 | 253 | 11.3 | 22.5 | 0.00 | 1.40 | 0.05 | 51 | 1003.0 |
| 20260507230054 | 8 | 259 | 12.9 | 29.0 | 0.00 | 1.40 | 0.05 | 51 | 1003.1 |
| 20260507225540 | 8 | 278 | 11.3 | 30.6 | 0.00 | 1.60 | 0.05 | 50 | 1003.0 |
| 20260507225044 | 8 | 270 | 19.3 | 33.8 | 0.00 | 1.60 | 0.05 | 50 | 1002.9 |
| 20260507224553 | 8 | 240 | 17.7 | 33.8 | 0.00 | 1.60 | 0.05 | 49 | 1002.8 |
| 20260507224045 | 8 | 226 | 16.1 | 32.2 | 0.00 | 1.60 | 0.05 | 48 | 1002.9 |
| 20260507223540 | 8 | 274 | 12.9 | 37.0 | 0.00 | 1.60 | 0.05 | 49 | 1002.8 |
| 20260507223053 | 8 | 269 | 16.1 | 37.0 | 0.00 | 1.60 | 0.05 | 50 | 1002.9 |
| 20260507222539 | 9 | 240 | 19.3 | 37.0 | 0.00 | 1.60 | 0.05 | 50 | 1002.7 |
| 20260507222040 | 9 | 298 | 19.3 | 30.6 | 0.00 | 1.60 | 0.05 | 50 | 1002.6 |
| 20260507221555 | 9 | 288 | 19.3 | 30.6 | 0.00 | 1.60 | 0.05 | 51 | 1002.6 |
| 20260507221041 | 9 | 279 | 11.3 | 24.1 | 0.00 | 1.60 | 0.05 | 51 | 1002.6 |
| 20260507220541 | 10 | 254 | 9.7 | 24.1 | 0.00 | 1.60 | 0.05 | 51 | 1002.6 |
| 20260507220056 | 9 | 262 | 11.3 | 22.5 | 0.00 | 1.60 | 0.05 | 52 | 1002.6 |
| 20260507215540 | 10 | 276 | 12.9 | 25.7 | 0.00 | 1.68 | 0.05 | 50 | 1002.5 |
| 20260507215039 | 9 | 281 | 14.5 | 25.7 | 0.00 | 1.68 | 0.05 | 51 | 1002.5 |
| 20260507214610 | 9 | 274 | 14.5 | 25.7 | 0.00 | 1.68 | 0.05 | 51 | 1002.5 |
| 20260507214039 | 9 | 241 | 11.3 | 27.4 | 0.00 | 1.68 | 0.05 | 52 | 1002.5 |
| 20260507213538 | 10 | 264 | 11.3 | 27.4 | 0.00 | 1.68 | 0.05 | 51 | 1002.5 |
| 20260507213103 | 10 | 257 | 9.7 | 25.7 | 0.00 | 1.68 | 0.05 | 50 | 1002.4 |
| 20260507212538 | 10 | 228 | 12.9 | 25.7 | 0.00 | 1.68 | 0.05 | 50 | 1002.3 |
| 20260507212040 | 10 | 271 | 8.0 | 24.1 | 0.00 | 1.68 | 0.05 | 50 | 1002.1 |
| 20260507211606 | 10 | 224 | 14.5 | 27.4 | 0.00 | 1.68 | 0.05 | 49 | 1002.3 |
| 20260507211037 | 11 | 250 | 14.5 | 27.4 | 0.00 | 1.68 | 0.05 | 49 | 1002.3 |
| 20260507210539 | 11 | 241 | 14.5 | 27.4 | 0.00 | 1.68 | 0.05 | 48 | 1002.1 |
| 20260507210054 | 10 | 278 | 11.3 | 35.4 | 0.00 | 1.68 | 0.05 | 51 | 1002.1 |
| 20260507205538 | 10 | 266 | 19.3 | 35.4 | 0.00 | 2.18 | 0.05 | 50 | 1002.0 |
| 20260507205039 | 10 | 240 | 12.9 | 33.8 | 0.00 | 2.18 | 0.05 | 53 | 1001.9 |
| 20260507204554 | 10 | 263 | 14.5 | 33.8 | 0.00 | 2.18 | 0.05 | 51 | 1001.8 |
| 20260507204042 | 10 | 283 | 16.1 | 38.6 | 0.00 | 2.18 | 0.05 | 53 | 1001.8 |
| 20260507203539 | 9 | 223 | 20.9 | 38.6 | 0.00 | 2.18 | 0.05 | 52 | 1001.8 |
| 20260507203053 | 10 | 278 | 22.5 | 35.4 | 0.00 | 2.18 | 0.05 | 53 | 1001.6 |
| 20260507202542 | 10 | 280 | 19.3 | 32.2 | 0.00 | 2.18 | 0.05 | 54 | 1001.5 |
| 20260507202040 | 10 | 257 | 16.1 | 29.0 | 0.00 | 2.18 | 0.05 | 54 | 1001.4 |
| 20260507201547 | 10 | 223 | 11.3 | 29.0 | 0.00 | 2.18 | 0.05 | 52 | 1001.4 |
| 20260507201038 | 10 | 275 | 14.5 | 25.7 | 0.00 | 2.18 | 0.05 | 55 | 1001.3 |
| 20260507200537 | 11 | 255 | 12.9 | 30.6 | 0.00 | 2.18 | 0.05 | 53 | 1001.3 |
| 20260507200047 | 11 | 268 | 12.9 | 30.6 | 0.00 | 2.18 | 0.05 | 55 | 1001.2 |
| 20260507195543 | 11 | 316 | 17.7 | 29.0 | 0.00 | 2.44 | 0.05 | 54 | 1001.2 |
| 20260507195038 | 11 | 288 | 12.9 | 37.0 | 0.00 | 2.44 | 0.05 | 52 | 1001.1 |
| 20260507194616 | 11 | 291 | 17.7 | 37.0 | 0.00 | 2.44 | 0.05 | 51 | 1001.1 |
| 20260507194038 | 11 | 249 | 16.1 | 29.0 | 0.00 | 2.44 | 0.05 | 53 | 1001.1 |
| 20260507193538 | 11 | 273 | 12.9 | 22.5 | 0.00 | 2.44 | 0.05 | 52 | 1001.0 |
| 20260507193051 | 11 | 243 | 12.9 | 22.5 | 0.00 | 2.44 | 0.05 | 54 | 1001.0 |
| 20260507192539 | 11 | 293 | 11.3 | 22.5 | 0.00 | 2.44 | 0.05 | 53 | 1001.0 |
| 20260507192038 | 11 | 266 | 11.3 | 25.7 | 0.00 | 2.44 | 0.05 | 52 | 1001.0 |
| 20260507191551 | 11 | 249 | 12.9 | 25.7 | 0.00 | 2.44 | 0.05 | 56 | 1001.0 |
| 20260507191038 | 11 | 246 | 14.5 | 24.1 | 0.00 | 2.44 | 0.05 | 52 | 1001.0 |
| 20260507190538 | 12 | 275 | 11.3 | 24.1 | 0.00 | 2.44 | 0.05 | 53 | 1001.0 |
| 20260507190047 | 12 | 262 | 14.5 | 27.4 | 0.00 | 2.44 | 0.05 | 53 | 1001.0 |
| 20260507185538 | 12 | 302 | 16.1 | 27.4 | 0.00 | 2.79 | 0.05 | 52 | 1000.9 |
| 20260507185037 | 12 | 284 | 14.5 | 24.1 | 0.00 | 2.79 | 0.05 | 51 | 1001.0 |
| 20260507184604 | 12 | 259 | 9.7 | 33.8 | 0.00 | 2.79 | 0.05 | 48 | 1001.0 |
| 20260507184039 | 12 | 216 | 9.7 | 33.8 | 0.00 | 2.79 | 0.05 | 55 | 1001.0 |
| 20260507183540 | 12 | 203 | 12.9 | 27.4 | 0.00 | 2.79 | 0.05 | 51 | 1001.1 |
| 20260507183052 | 12 | 228 | 17.7 | 27.4 | 0.00 | 2.79 | 0.05 | 51 | 1001.0 |
| 20260507182540 | 12 | 255 | 12.9 | 27.4 | 0.00 | 2.79 | 0.05 | 55 | 1001.2 |
| 20260507182039 | 12 | 237 | 12.9 | 27.4 | 0.00 | 2.79 | 0.05 | 54 | 1001.2 |
| 20260507181553 | 12 | 271 | 11.3 | 24.1 | 0.00 | 2.79 | 0.05 | 56 | 1001.3 |
| 20260507181038 | 11 | 243 | 11.3 | 30.6 | 0.00 | 2.79 | 0.05 | 60 | 1001.4 |
| 20260507180539 | 11 | 269 | 19.3 | 30.6 | 0.00 | 2.79 | 0.05 | 65 | 1001.4 |
| 20260507180057 | 11 | 250 | 11.3 | 24.1 | 0.00 | 2.79 | 0.05 | 65 | 1001.4 |
| 20260507175538 | 11 | 233 | 12.9 | 25.7 | 0.00 | 2.87 | 0.05 | 66 | 1001.4 |
| 20260507175038 | 11 | 219 | 12.9 | 30.6 | 0.00 | 2.87 | 0.05 | 66 | 1001.4 |
| 20260507174550 | 11 | 245 | 17.7 | 30.6 | 0.00 | 2.87 | 0.05 | 64 | 1001.4 |
| 20260507174039 | 11 | 227 | 17.7 | 27.4 | 0.00 | 2.87 | 0.05 | 66 | 1001.4 |
| 20260507173538 | 11 | 255 | 12.9 | 29.0 | 0.00 | 2.87 | 0.05 | 70 | 1001.4 |
| 20260507173050 | 11 | 272 | 12.9 | 29.0 | 0.00 | 2.87 | 0.05 | 68 | 1001.5 |
| 20260507172539 | 11 | 224 | 16.1 | 29.0 | 0.00 | 2.87 | 0.05 | 67 | 1001.6 |
| 20260507172038 | 11 | 259 | 12.9 | 25.7 | 0.00 | 2.87 | 0.05 | 68 | 1001.7 |
| 20260507171556 | 11 | 255 | 16.1 | 25.7 | 0.00 | 2.87 | 0.05 | 68 | 1001.7 |
| 20260507171039 | 11 | 217 | 16.1 | 24.1 | 0.00 | 2.87 | 0.05 | 67 | 1001.9 |
| 20260507170541 | 11 | 249 | 14.5 | 24.1 | 0.00 | 2.87 | 0.05 | 71 | 1002.0 |
| 20260507170048 | 11 | 283 | 16.1 | 24.1 | 0.00 | 2.87 | 0.05 | 70 | 1002.1 |
| 20260507165538 | 11 | 271 | 16.1 | 22.5 | 0.00 | 2.92 | 0.05 | 71 | 1002.2 |
| 20260507165038 | 11 | 261 | 14.5 | 22.5 | 0.00 | 2.92 | 0.05 | 70 | 1002.2 |
| 20260507164548 | 11 | 233 | 11.3 | 22.5 | 0.00 | 2.92 | 0.05 | 70 | 1002.2 |
| 20260507164038 | 10 | 232 | 14.5 | 24.1 | 0.00 | 2.92 | 0.05 | 69 | 1002.2 |
| 20260507163540 | 11 | 228 | 14.5 | 27.4 | 0.00 | 2.92 | 0.05 | 68 | 1002.3 |
| 20260507163048 | 11 | 243 | 11.3 | 27.4 | 0.00 | 2.92 | 0.05 | 68 | 1002.3 |
| 20260507162539 | 11 | 273 | 16.1 | 27.4 | 0.00 | 2.92 | 0.05 | 65 | 1002.2 |
| 20260507162038 | 12 | 236 | 14.5 | 25.7 | 0.00 | 2.92 | 0.05 | 64 | 1002.2 |
| 20260507161550 | 12 | 239 | 14.5 | 25.7 | 0.00 | 2.92 | 0.05 | 66 | 1002.1 |
| 20260507161039 | 11 | 246 | 9.7 | 20.9 | 0.00 | 2.92 | 0.05 | 66 | 1002.0 |
| 20260507160540 | 11 | 248 | 11.3 | 24.1 | 0.00 | 2.92 | 0.05 | 68 | 1002.0 |
| 20260507160051 | 11 | 260 | 12.9 | 24.1 | 0.00 | 2.92 | 0.05 | 68 | 1002.2 |
| 20260507155539 | 11 | 245 | 9.7 | 20.9 | 0.00 | 2.95 | 0.05 | 67 | 1002.2 |
| 20260507155039 | 11 | 264 | 11.3 | 22.5 | 0.00 | 2.95 | 0.05 | 66 | 1002.4 |
| 20260507154554 | 11 | 266 | 11.3 | 22.5 | 0.00 | 2.95 | 0.05 | 65 | 1002.4 |
| 20260507154036 | 11 | 245 | 12.9 | 24.1 | 0.00 | 2.95 | 0.05 | 66 | 1002.4 |
| 20260507153537 | 11 | 235 | 12.9 | 29.0 | 0.00 | 2.95 | 0.05 | 68 | 1002.4 |
| 20260507153052 | 11 | 238 | 17.7 | 29.0 | 0.00 | 2.95 | 0.05 | 68 | 1002.4 |
| 20260507152538 | 11 | 237 | 17.7 | 29.0 | 0.00 | 2.95 | 0.05 | 68 | 1002.4 |
| 20260507152039 | 11 | 205 | 14.5 | 29.0 | 0.00 | 2.95 | 0.05 | 70 | 1002.4 |
| 20260507151544 | 11 | 245 | 17.7 | 24.1 | 0.00 | 2.95 | 0.05 | 70 | 1002.4 |
| 20260507151038 | 11 | 246 | 9.7 | 22.5 | 0.00 | 2.95 | 0.05 | 71 | 1002.4 |
| 20260507150538 | 11 | 271 | 11.3 | 22.5 | 0.00 | 2.95 | 0.05 | 71 | 1002.4 |
| 20260507150052 | 11 | 266 | 8.0 | 16.1 | 0.00 | 2.95 | 0.05 | 71 | 1002.4 |
| 20260507145538 | 10 | 270 | 8.0 | 19.3 | 0.00 | 2.95 | 0.05 | 71 | 1002.4 |
| 20260507145038 | 10 | 235 | 9.7 | 19.3 | 0.00 | 2.95 | 0.05 | 71 | 1002.5 |
| 20260507144548 | 10 | 274 | 8.0 | 19.3 | 0.00 | 2.95 | 0.05 | 71 | 1002.5 |
| 20260507144039 | 10 | 272 | 11.3 | 19.3 | 0.00 | 2.95 | 0.05 | 71 | 1002.5 |
| 20260507143538 | 11 | 255 | 9.7 | 17.7 | 0.00 | 2.95 | 0.05 | 71 | 1002.6 |
| 20260507143051 | 10 | 231 | 9.7 | 17.7 | 0.00 | 2.95 | 0.05 | 72 | 1002.6 |
| 20260507142539 | 10 | 265 | 8.0 | 17.7 | 0.00 | 2.95 | 0.05 | 73 | 1002.7 |
| 20260507142038 | 10 | 238 | 11.3 | 17.7 | 0.00 | 2.95 | 0.05 | 70 | 1002.7 |
| 20260507141546 | 11 | 221 | 8.0 | 17.7 | 0.00 | 2.95 | 0.05 | 72 | 1002.6 |
| 20260507141038 | 11 | 248 | 9.7 | 17.7 | 0.00 | 2.95 | 0.05 | 71 | 1002.7 |
| 20260507140538 | 10 | 252 | 8.0 | 17.7 | 0.00 | 2.95 | 0.05 | 75 | 1002.8 |
| 20260507140047 | 10 | 248 | 8.0 | 16.1 | 0.00 | 2.95 | 0.05 | 72 | 1002.7 |
| 20260507135541 | 10 | 257 | 4.8 | 20.9 | 0.00 | 2.95 | 0.05 | 74 | 1002.6 |
| 20260507135038 | 10 | 264 | 8.0 | 20.9 | 0.00 | 2.95 | 0.05 | 76 | 1002.6 |
| 20260507134544 | 9 | 215 | 14.5 | 25.7 | 0.00 | 2.95 | 0.05 | 77 | 1002.6 |
| 20260507134037 | 9 | 247 | 14.5 | 25.7 | 0.00 | 2.95 | 0.05 | 75 | 1002.6 |
| 20260507133539 | 9 | 239 | 11.3 | 25.7 | 0.00 | 2.95 | 0.05 | 76 | 1002.7 |
| 20260507133051 | 9 | 250 | 14.5 | 25.7 | 0.00 | 2.95 | 0.05 | 75 | 1002.8 |
| 20260507132538 | 9 | 226 | 12.9 | 20.9 | 0.00 | 2.95 | 0.05 | 74 | 1002.8 |
| 20260507132038 | 9 | 224 | 14.5 | 22.5 | 0.00 | 2.95 | 0.05 | 74 | 1002.7 |
| 20260507131608 | 9 | 233 | 14.5 | 22.5 | 0.00 | 2.95 | 0.05 | 75 | 1002.7 |
| 20260507131038 | 9 | 233 | 11.3 | 20.9 | 0.00 | 2.95 | 0.05 | 76 | 1002.7 |
| 20260507130540 | 9 | 196 | 11.3 | 20.9 | 0.00 | 2.95 | 0.05 | 77 | 1002.6 |
| 20260507130046 | 8 | 226 | 9.7 | 22.5 | 0.00 | 2.95 | 0.05 | 77 | 1002.6 |
| 20260507125538 | 8 | 258 | 11.3 | 22.5 | 0.00 | 2.95 | 0.05 | 76 | 1002.7 |
| 20260507125038 | 8 | 213 | 8.0 | 17.7 | 0.00 | 2.95 | 0.05 | 79 | 1002.8 |
| 20260507124547 | 8 | 259 | 9.7 | 17.7 | 0.00 | 2.95 | 0.05 | 78 | 1002.9 |
| 20260507124038 | 8 | 257 | 9.7 | 17.7 | 0.00 | 2.95 | 0.05 | 79 | 1002.8 |
| 20260507123538 | 8 | 248 | 6.4 | 22.5 | 0.00 | 2.95 | 0.05 | 80 | 1002.9 |
| 20260507123047 | 8 | 235 | 9.7 | 22.5 | 0.00 | 2.95 | 0.05 | 80 | 1003.0 |
| 20260507122538 | 8 | 235 | 11.3 | 22.5 | 0.00 | 2.95 | 0.05 | 79 | 1003.0 |
| 20260507122038 | 7 | 233 | 9.7 | 22.5 | 0.00 | 2.95 | 0.05 | 81 | 1002.9 |
| 20260507121549 | 7 | 241 | 11.3 | 25.7 | 0.00 | 2.95 | 0.05 | 82 | 1002.9 |
| 20260507121039 | 7 | 269 | 11.3 | 25.7 | 0.00 | 2.95 | 0.05 | 82 | 1003.0 |
| 20260507120538 | 7 | 238 | 12.9 | 25.7 | 0.00 | 2.95 | 0.05 | 83 | 1003.0 |
| 20260507120047 | 7 | 264 | 14.5 | 24.1 | 0.00 | 2.95 | 0.05 | 83 | 1002.9 |
| 20260507115539 | 7 | 255 | 11.3 | 24.1 | 0.00 | 2.95 | 0.05 | 84 | 1003.0 |
| 20260507115038 | 7 | 282 | 16.1 | 24.1 | 0.00 | 2.95 | 0.05 | 84 | 1003.1 |
| 20260507114547 | 7 | 217 | 14.5 | 29.0 | 0.00 | 2.95 | 0.05 | 84 | 1003.2 |
| 20260507114038 | 7 | 214 | 12.9 | 29.0 | 0.00 | 2.95 | 0.05 | 84 | 1003.1 |
| 20260507113539 | 7 | 221 | 8.0 | 19.3 | 0.00 | 2.95 | 0.05 | 83 | 1003.1 |
| 20260507113048 | 6 | 231 | 9.7 | 17.7 | 0.00 | 2.95 | 0.05 | 85 | 1003.2 |
| 20260507112538 | 6 | 241 | 9.7 | 19.3 | 0.00 | 2.95 | 0.05 | 84 | 1003.0 |
| 20260507112038 | 6 | 257 | 4.8 | 24.1 | 0.00 | 2.95 | 0.05 | 86 | 1003.0 |
| 20260507111550 | 6 | 232 | 8.0 | 24.1 | 0.00 | 2.95 | 0.05 | 84 | 1002.9 |
| 20260507111038 | 6 | 236 | 12.9 | 27.4 | 0.00 | 2.95 | 0.05 | 85 | 1002.9 |
| 20260507110539 | 6 | 231 | 11.3 | 27.4 | 0.00 | 2.95 | 0.05 | 86 | 1002.9 |
| 20260507110051 | 6 | 229 | 14.5 | 27.4 | 0.00 | 2.95 | 0.05 | 86 | 1003.0 |
| 20260507105537 | 5 | 251 | 11.3 | 24.1 | 0.00 | 2.95 | 0.05 | 86 | 1003.1 |
| 20260507105037 | 5 | 252 | 9.7 | 22.5 | 0.00 | 2.95 | 0.05 | 87 | 1003.0 |
| 20260507104547 | 5 | 276 | 11.3 | 25.7 | 0.00 | 2.95 | 0.05 | 87 | 1002.9 |
| 20260507104039 | 5 | 254 | 12.9 | 27.4 | 0.00 | 2.95 | 0.05 | 87 | 1002.7 |
| 20260507103539 | 5 | 226 | 16.1 | 27.4 | 0.00 | 2.95 | 0.05 | 86 | 1002.6 |
| 20260507103046 | 5 | 239 | 19.3 | 29.0 | 0.00 | 2.95 | 0.05 | 86 | 1002.7 |
| 20260507102538 | 5 | 242 | 20.9 | 29.0 | 0.00 | 2.95 | 0.05 | 87 | 1002.6 |
| 20260507102038 | 5 | 238 | 16.1 | 29.0 | 0.00 | 2.95 | 0.05 | 88 | 1002.6 |
| 20260507101552 | 5 | 235 | 19.3 | 29.0 | 0.00 | 2.95 | 0.05 | 88 | 1002.5 |
| 20260507101038 | 5 | 226 | 16.1 | 27.4 | 0.00 | 2.95 | 0.05 | 88 | 1002.6 |
| 20260507100538 | 5 | 245 | 11.3 | 22.5 | 0.00 | 2.95 | 0.05 | 88 | 1002.6 |
| 20260507100050 | 5 | 252 | 4.8 | 19.3 | 0.00 | 2.95 | 0.05 | 88 | 1002.6 |
| 20260507095538 | 5 | 230 | 8.0 | 19.3 | 0.00 | 2.95 | 0.05 | 88 | 1002.5 |
| 20260507095038 | 5 | 247 | 11.3 | 20.9 | 0.00 | 2.95 | 0.05 | 88 | 1002.4 |
| 20260507094550 | 5 | 290 | 12.9 | 20.9 | 0.00 | 2.95 | 0.05 | 87 | 1002.3 |
| 20260507094038 | 5 | 238 | 9.7 | 24.1 | 0.00 | 2.95 | 0.05 | 88 | 1002.3 |
| 20260507093538 | 5 | 224 | 14.5 | 25.7 | 0.00 | 2.95 | 0.05 | 88 | 1002.6 |
| 20260507093053 | 5 | 233 | 16.1 | 25.7 | 0.00 | 2.95 | 0.05 | 87 | 1002.8 |
| 20260507092541 | 5 | 225 | 16.1 | 25.7 | 0.00 | 2.95 | 0.05 | 88 | 1002.9 |
| 20260507092037 | 5 | 224 | 17.7 | 25.7 | 0.00 | 2.95 | 0.05 | 87 | 1002.6 |
| 20260507091548 | 5 | 229 | 14.5 | 19.3 | 0.00 | 2.95 | 0.05 | 86 | 1002.6 |
| 20260507091038 | 5 | 228 | 9.7 | 20.9 | 0.00 | 2.95 | 0.05 | 85 | 1002.8 |
| 20260507090538 | 6 | 243 | 11.3 | 20.9 | 0.00 | 2.95 | 0.05 | 84 | 1002.9 |
| 20260507090048 | 5 | 230 | 6.4 | 17.7 | 0.00 | 2.95 | 0.05 | 85 | 1002.8 |
| 20260507085538 | 5 | 242 | 6.4 | 19.3 | 0.00 | 2.95 | 0.05 | 85 | 1002.9 |
| 20260507085039 | 5 | 266 | 11.3 | 19.3 | 0.00 | 2.95 | 0.05 | 87 | 1002.6 |
| 20260507084551 | 5 | 244 | 11.3 | 19.3 | 0.00 | 2.95 | 0.05 | 86 | 1002.5 |
| 20260507084039 | 5 | 255 | 8.0 | 19.3 | 0.00 | 2.95 | 0.05 | 87 | 1002.5 |
| 20260507083538 | 5 | 318 | 1.6 | 14.5 | 0.00 | 2.95 | 0.05 | 89 | 1002.6 |
| 20260507083045 | 5 | 316 | 1.6 | 8.0 | 0.00 | 2.95 | 0.05 | 89 | 1002.6 |
| 20260507082540 | 5 | 0 | 1.6 | 9.7 | 0.00 | 2.95 | 0.05 | 90 | 1002.7 |
| 20260507082038 | 5 | 232 | 3.2 | 9.7 | 0.00 | 2.95 | 0.05 | 90 | 1003.0 |
| 20260507081547 | 5 | 257 | 1.6 | 17.7 | 0.00 | 2.95 | 0.05 | 90 | 1003.1 |
| 20260507081038 | 5 | 240 | 3.2 | 19.3 | 0.00 | 2.95 | 0.05 | 89 | 1003.1 |
| 20260507080538 | 5 | 218 | 9.7 | 20.9 | 0.00 | 2.95 | 0.05 | 89 | 1003.1 |
| 20260507080111 | 5 | 233 | 11.3 | 20.9 | 0.00 | 2.95 | 0.05 | 89 | 1003.1 |
| 20260507075538 | 5 | 241 | 8.0 | 16.1 | 0.00 | 2.95 | 0.05 | 90 | 1002.9 |
| 20260507075038 | 5 | 259 | 8.0 | 14.5 | 0.00 | 2.95 | 0.05 | 89 | 1003.0 |
| 20260507074547 | 5 | 266 | 6.4 | 19.3 | 0.00 | 2.95 | 0.05 | 89 | 1002.8 |
| 20260507074038 | 5 | 257 | 9.7 | 19.3 | 0.00 | 2.95 | 0.05 | 89 | 1002.8 |
| 20260507073538 | 5 | 245 | 9.7 | 19.3 | 0.00 | 2.95 | 0.05 | 89 | 1002.6 |
| 20260507073046 | 5 | 264 | 9.7 | 17.7 | 0.00 | 2.95 | 0.05 | 90 | 1002.6 |
| 20260507072539 | 5 | 239 | 8.0 | 16.1 | 0.00 | 2.95 | 0.05 | 90 | 1002.7 |
| 20260507072039 | 5 | 231 | 6.4 | 14.5 | 0.00 | 2.95 | 0.05 | 90 | 1002.8 |
| 20260507071607 | 5 | 228 | 4.8 | 11.3 | 0.00 | 2.95 | 0.05 | 91 | 1002.8 |
| 20260507071039 | 5 | 220 | 1.6 | 9.7 | 0.00 | 2.95 | 0.05 | 91 | 1002.8 |
| 20260507070539 | 5 | 228 | 3.2 | 9.7 | 0.00 | 2.95 | 0.05 | 91 | 1002.5 |
| 20260507070049 | 5 | 224 | 3.2 | 8.0 | 0.00 | 2.95 | 0.05 | 91 | 1002.6 |
| 20260507065538 | 6 | 223 | 1.6 | 6.4 | 0.00 | 2.95 | 0.05 | 90 | 1002.4 |
| 20260507065038 | 6 | 248 | 1.6 | 8.0 | 0.00 | 2.95 | 0.05 | 89 | 1002.3 |
| 20260507064549 | 5 | 280 | 3.2 | 9.7 | 0.00 | 2.95 | 0.05 | 91 | 1002.3 |
| 20260507064038 | 5 | 261 | 3.2 | 9.7 | 0.00 | 2.95 | 0.05 | 91 | 1002.3 |
| 20260507063538 | 6 | 214 | 3.2 | 12.9 | 0.00 | 2.95 | 0.05 | 90 | 1002.4 |
| 20260507063047 | 6 | 260 | 3.2 | 16.1 | 0.00 | 2.95 | 0.05 | 91 | 1002.5 |
| 20260507062538 | 6 | 245 | 4.8 | 16.1 | 0.00 | 2.95 | 0.05 | 91 | 1002.3 |
| 20260507062038 | 6 | 272 | 9.7 | 17.7 | 0.00 | 2.95 | 0.05 | 90 | 1002.3 |
| 20260507061555 | 6 | 259 | 8.0 | 17.7 | 0.00 | 2.95 | 0.05 | 91 | 1002.4 |
| 20260507061038 | 6 | 236 | 9.7 | 17.7 | 0.00 | 2.95 | 0.05 | 91 | 1002.6 |
| 20260507060538 | 6 | 233 | 6.4 | 12.9 | 0.00 | 2.95 | 0.05 | 91 | 1002.3 |
| 20260507060050 | 6 | 239 | 6.4 | 11.3 | 0.00 | 2.95 | 0.05 | 92 | 1002.2 |
| 20260507055542 | 6 | 255 | 4.8 | 9.7 | 0.00 | 2.95 | 0.05 | 94 | 1002.2 |
| 20260507055039 | 6 | 248 | 4.8 | 9.7 | 0.00 | 2.95 | 0.05 | 93 | 1002.2 |
| 20260507054547 | 6 | 243 | 6.4 | 9.7 | 0.00 | 2.95 | 0.05 | 93 | 1001.8 |
| 20260507054038 | 6 | 224 | 4.8 | 14.5 | 0.00 | 2.95 | 0.05 | 93 | 1001.8 |
| 20260507053542 | 6 | 235 | 6.4 | 14.5 | 0.03 | 2.95 | 0.05 | 94 | 1002.0 |
| 20260507053115 | 6 | 262 | 4.8 | 12.9 | 0.03 | 2.95 | 0.05 | 94 | 1002.2 |
| 20260507052538 | 6 | 207 | 3.2 | 12.9 | 0.03 | 2.95 | 0.05 | 94 | 1002.1 |
| 20260507052038 | 6 | 278 | 4.8 | 19.3 | 0.03 | 2.95 | 0.05 | 94 | 1002.2 |
| 20260507051557 | 6 | 250 | 9.7 | 19.3 | 0.03 | 2.95 | 0.05 | 94 | 1002.2 |
| 20260507051038 | 6 | 259 | 6.4 | 17.7 | 0.03 | 2.95 | 0.05 | 93 | 1002.0 |
| 20260507050538 | 6 | 233 | 8.0 | 17.7 | 0.03 | 2.95 | 0.05 | 93 | 1002.0 |
| 20260507050048 | 6 | 252 | 6.4 | 14.5 | 0.05 | 2.95 | 0.05 | 94 | 1002.2 |
| 20260507045544 | 6 | 232 | 6.4 | 11.3 | 0.05 | 2.97 | 0.05 | 94 | 1002.1 |
| 20260507045039 | 6 | 241 | 3.2 | 8.0 | 0.08 | 2.97 | 0.05 | 94 | 1002.0 |
| 20260507044549 | 7 | 259 | 1.6 | 6.4 | 0.10 | 2.97 | 0.05 | 95 | 1001.9 |
| 20260507044038 | 7 | 229 | 1.6 | 6.4 | 0.15 | 2.97 | 0.05 | 94 | 1002.1 |
| 20260507043539 | 7 | 255 | 0.0 | 4.8 | 0.15 | 2.95 | 0.03 | 94 | 1002.1 |
| 20260507043050 | 7 | 269 | 1.6 | 8.0 | 0.15 | 2.95 | 0.03 | 95 | 1002.1 |
| 20260507042539 | 7 | 266 | 0.0 | 11.3 | 0.18 | 2.95 | 0.03 | 95 | 1002.1 |
| 20260507042038 | 7 | 236 | 1.6 | 16.1 | 0.20 | 2.95 | 0.03 | 95 | 1002.4 |
| 20260507041547 | 7 | 245 | 4.8 | 16.1 | 0.23 | 2.95 | 0.03 | 96 | 1002.5 |
| 20260507041035 | 7 | 240 | 8.0 | 16.1 | 0.25 | 2.95 | 0.03 | 97 | 1002.6 |
| 20260507040539 | 7 | 231 | 3.2 | 9.7 | 0.30 | 2.95 | 0.03 | 97 | 1002.5 |
| 20260507040049 | 7 | 261 | 1.6 | 11.3 | 0.33 | 2.95 | 0.00 | 97 | 1002.5 |
| 20260507035538 | 7 | 232 | 3.2 | 11.3 | 0.36 | 2.95 | 2.95 | 96 | 1002.4 |
| 20260507035038 | 7 | 253 | 8.0 | 12.9 | 0.36 | 2.92 | 2.92 | 97 | 1002.5 |
| 20260507034549 | 7 | 241 | 3.2 | 12.9 | 0.33 | 2.90 | 2.90 | 97 | 1002.7 |
| 20260507034038 | 7 | 234 | 8.0 | 14.5 | 0.30 | 2.84 | 2.84 | 97 | 1002.5 |
| 20260507033538 | 7 | 258 | 6.4 | 14.5 | 0.30 | 2.82 | 2.82 | 98 | 1002.3 |
| 20260507033051 | 8 | 287 | 8.0 | 16.1 | 0.33 | 2.82 | 2.82 | 97 | 1002.2 |
| 20260507032539 | 8 | 270 | 8.0 | 16.1 | 0.33 | 2.79 | 2.79 | 98 | 1002.1 |
| 20260507032038 | 8 | 278 | 8.0 | 17.7 | 0.33 | 2.77 | 2.77 | 98 | 1001.9 |
| 20260507031549 | 8 | 222 | 8.0 | 17.7 | 0.36 | 2.74 | 2.74 | 99 | 1001.9 |
| 20260507031043 | 8 | 226 | 8.0 | 22.5 | 0.33 | 2.67 | 2.67 | 99 | 1001.9 |
| 20260507030540 | 8 | 241 | 8.0 | 22.5 | 0.38 | 2.64 | 2.64 | 99 | 1001.8 |
| 20260507030049 | 8 | 238 | 12.9 | 22.5 | 0.36 | 2.59 | 2.59 | 100 | 1002.1 |
| 20260507025540 | 8 | 219 | 8.0 | 14.5 | 0.38 | 2.59 | 2.59 | 100 | 1001.9 |
| 20260507025042 | 9 | 205 | 0.0 | 11.3 | 0.36 | 2.57 | 2.57 | 100 | 1001.7 |
| 20260507024559 | 9 | 0 | 0.0 | 3.2 | 0.36 | 2.57 | 2.57 | 100 | 1001.6 |
| 20260507024040 | 9 | 0 | 0.0 | 3.2 | 0.38 | 2.54 | 2.54 | 100 | 1001.7 |
| 20260507023540 | 9 | 0 | 0.0 | 1.6 | 0.38 | 2.51 | 2.51 | 100 | 1001.6 |
| 20260507023055 | 9 | 0 | 0.0 | 1.6 | 0.36 | 2.49 | 2.49 | 100 | 1001.6 |
| 20260507022539 | 9 | 0 | 0.0 | 3.2 | 0.36 | 2.46 | 2.46 | 100 | 1001.8 |
| 20260507022040 | 9 | 94 | 0.0 | 3.2 | 0.33 | 2.44 | 2.44 | 100 | 1001.9 |
| 20260507021549 | 9 | 0 | 0.0 | 1.6 | 0.28 | 2.39 | 2.39 | 100 | 1002.0 |
| 20260507021041 | 9 | 0 | 0.0 | 1.6 | 0.25 | 2.34 | 2.34 | 100 | 1002.1 |